Regional Weather Roundup
Issued by NWS

Home | Current Version | Previous Version | Graphics & Text | Print | Product List | Glossary On
Versions: 1 2 3 4 5 6 7 8 9 10 11 12 13 14 15 16 17 18 19 20 21 22 23 24 25 26 27 28 29
000
ASUS45 KSLC 250210
RWRUT

UTAH REGIONAL WEATHER ROUNDUP
NATIONAL WEATHER SERVICE SALT LAKE CITY UT
800 PM MDT FRI OCT 24 2014

UTZ001>011-023>025-250300-

NORTHERN UTAH

CITY           SKY/WX    TMP DP  RH WIND       PRES   REMARKS
BRIGHAM CITY   CLEAR     57  40  52 CALM      30.09S
HILL AFB       CLEAR     64  38  38 E6        30.11S
LOGAN          CLEAR     57  34  41 CALM      30.10S
OGDEN          CLEAR     61  40  45 SE5       30.09S
PROVO AIRPORT  CLEAR     64  34  32 NE6       30.12
SALT LAKE CITY CLEAR     58  40  51 W3        30.08S
VERNAL         CLEAR     54  37  52 W6        30.21R
WENDOVER       CLEAR     54  34  47 CALM      30.07R
HEBER CITY     CLEAR     55  27  33 CALM      30.19R
WEST JORDAN    CLEAR     61  37  41 CALM      30.12R

$$

UTZ012>022-026-027-250300-

SOUTHERN/CENTRAL UTAH

CITY           SKY/WX    TMP DP  RH WIND       PRES   REMARKS
BLANDING       CLEAR     55  31  40 N6        30.35R
BRYCE CANYON   CLEAR     53  29  39 SE10      30.36R
CEDAR CITY     CLEAR     62  28  27 CALM      30.20R
DELTA          CLEAR     64  23  21 S10       30.12R
HANKSVILLE       N/A     64  32  29 N10       30.18R
MILFORD        CLEAR     59  29  31 SE8       30.15R
MOAB/CYNLANDS  CLEAR     60  32  34 SW6       30.14S
PRICE          CLEAR     56  32  40 N9        30.26R
ST GEORGE      CLEAR     73  36  25 SW6       30.07R
KANAB            N/A     55  32  41 NE6       30.22R

$$

REGIONAL REPORTS     COLORADO/ARIZONA

CITY           SKY/WX    TMP DP  RH WIND       PRES   REMARKS
CRAIG, CO      CLEAR     51  28  41 SW6       30.27R
GRAND JUNCTION CLEAR     53  35  50 NE3       30.22R
RIFLE          CLEAR     53  35  50 SE13      30.26R
MONTROSE       CLEAR     54  36  50 S8        30.30R
CORTEZ         CLEAR     49  32  52 E7        30.30R
PAGE, AZ       CLEAR     67  36  31 S5        30.16R
GRAND CANYON   CLEAR     50  23  34 CALM      30.33R
KINGMAN        CLEAR     63  38  39 S10       30.11R
FLAGSTAFF      CLEAR     50  29  44 CALM      30.36R

$$

REGIONAL REPORTS    NEVADA/IDAHO/WYOMING

CITY           SKY/WX    TMP DP  RH WIND       PRES   REMARKS
LAS VEGAS, NV  CLEAR     83  38  20 SW6       29.96R
ELY            CLEAR     55  24  30 S10       30.18R
ELKO           CLEAR     63  21  20 CALM      30.02R
POCATELLO, ID  CLEAR     64  25  22 S14       30.06S
BURLEY         CLEAR     59  33  37 CALM      30.01S
EVANSTON, WY   CLEAR     57  24  28 S6        30.26S
ROCK SPRINGS   NOT AVBL
KEMMERER       CLEAR     50  23  34 N7        30.28R

$$



USA.gov is the U.S. government's official web portal to all federal, state and local government web resources and services.